STARLINK-33829, 63496

Orbit data source: Space-Track

STARLINK-33829, 63496 is a payload satellite owned by SpaceX/Seattle (US) in LEO that was launched on Mon, 07 Apr 2025 UTC via an FALCON 9 launch vehicle from the Air Force Western Test Range (AFWTR). Payload-class satellites include a variety of spacecraft equipped with specific instruments for various scientific and technological missions. These include communications satellites like Starlink; space stations such as the ISS; scientific satellites like the Hubble; Earth observation satellites from companies like Planet Labs, Umbra, and HawkEye 360; GPS; miniature CubeSats for education and research; and military/defense satellites.

Loading next visibility...
Identifier
63496, 2025-071D
Orbit
LEO
Last TLE update
11 hours ago
Origin
Manufacturer
SpaceX/Seattle
Mission
Operational Commercial Communications
Bus & Motor
STARLINK V2MO, Unknown motor
Mass
575 kg wet, ~530 kg dry
Launch date (UTC)
2025-04-07 (1 month ago)
Launch vehicle
FALCON 9
Launch site
Air Force Western Test Range (AFWTR)
Object type
Payload
Rocket body
Debris
Shape & HBR
Box + 1 Pan, 29 m
Radar Cross Section
41.120 m², Large (>1 m²)

Expand to show TLE details & history

TLE from 11 hours ago
0 STARLINK-33829
1 63496U 25071D   25128.91668981  .00073101  00000-0  18226-2 0  9992
2 63496  53.1596 120.1346 0001935  97.7514 253.9194 15.39576455  5982
Epoch: 2025-05-08T22:00Z
Definitive object data (Epoch: 2025-05-08T22:00:01.999Z)
Latitude
-6.79507°
Longitude
-81.94721°
Altitude
449.762 km
Speed
7.643 km/s
True Right ascension
07h 40m 09s
True Declination
-6° 45' 11"
Sunlit
Object was in daylight at TLE epoch
Visualization TLE readout
Latitude
8.65669°
Longitude
-72.49901°
Altitude
447.319 km
Speed
7.646 km/s
Apparent Right ascension
06h 59m 12s
Apparent Declination
-15° 55' 09"
Sunlit
Object is in daylight
Visualization observer readout
Local Sidereal Time
17:08:37
Azimuth
306.996° NW
Elevation
-56.032°
Doppler factor
1
Orbital elements
Apogee altitude
448.939 km
Perigee altitude
446.298 km
Semi-major axis
6,825.755 km
Eccentricity
0.0001935
Inclination
53.1596°
RAAN
120.1346°
Arg. of periapsis
97.7514°
True anomaly
253.8981°
Mean anomaly
253.9194°
Eccentric anomaly
253.90875°
Mean motion
3.84873 °/min
BSTAR
0.0018226
Orbital period
93.54 mins
Loading maneuver chart data...
Loading SW <> Apogee altitude chart data...
Loading historical data...
Loading historical data...
Loading historical data...
Loading historical data...
Loading historical data...
Loading historical data...
Loading historical data...

STARLINK-33829 Visibility forecast

Observer location: undefined°, undefined°

Span
Click to sort rows by Start time (UTC) header in descending order
Start Az.
Max El. time (UTC)
Max El. Az.
Max El.
End time (UTC)
End Az.
6 mins2025-05-09 09:27:22.039Z299.221° NW2025-05-09 09:30:22.039Z218.814° SW38.224°2025-05-09 09:33:22.039Z148.578° SSE
5 mins2025-05-10 02:17:22.039Z248.96° W2025-05-10 02:19:22.039Z332.533° NNW40.843°2025-05-10 02:22:22.039Z42.801° NE
5 mins2025-05-10 08:49:22.039Z306.106° NW2025-05-10 08:51:22.039Z282.949° WNW42.363°2025-05-10 08:54:22.039Z136.702° SSE
|